| time (UTC) | temp F | wind direction | speed knots | gust knots | rain 1hr in | rain 24hr in | rain mn in | humidity % | barometer mb |
| 20260504204506 | 49 | 110 | 0.0 | 1.7 | 0.00 | 0.00 | 0.00 | 54 | 1017.9 |
| 20260504204005 | 49 | 57 | 0.0 | 1.7 | 0.00 | 0.00 | 0.00 | 53 | 1017.9 |
| 20260504203506 | 49 | 45 | 0.9 | 1.7 | 0.00 | 0.00 | 0.00 | 53 | 1017.9 |
| 20260504203005 | 49 | 45 | 0.0 | 1.7 | 0.00 | 0.00 | 0.00 | 53 | 1017.9 |
| 20260504202505 | 50 | 45 | 0.0 | 1.7 | 0.00 | 0.00 | 0.00 | 53 | 1017.9 |
| 20260504202006 | 50 | 45 | 0.0 | 1.7 | 0.00 | 0.00 | 0.00 | 52 | 1017.8 |
| 20260504201506 | 51 | 45 | 0.0 | 1.7 | 0.00 | 0.00 | 0.00 | 51 | 1017.8 |
| 20260504201005 | 51 | 0 | 0.0 | 0.0 | 0.00 | 0.00 | 0.00 | 51 | 1017.8 |
| 20260504200526 | 52 | 45 | 0.0 | 1.7 | 0.00 | 0.00 | 0.00 | 50 | 1017.8 |
| 20260504200027 | 52 | 45 | 0.0 | 1.7 | 0.00 | 0.00 | 0.00 | 50 | 1017.8 |
| 20260504195527 | 53 | 47 | 0.0 | 1.7 | 0.00 | 0.00 | 0.00 | 49 | 1017.8 |
| 20260504195006 | 53 | 59 | 0.0 | 1.7 | 0.00 | 0.00 | 0.00 | 44 | 1017.7 |
| 20260504194505 | 53 | 90 | 0.0 | 0.9 | 0.00 | 0.00 | 0.00 | 44 | 1017.6 |
| 20260504194006 | 54 | 109 | 0.0 | 2.6 | 0.00 | 0.00 | 0.00 | 44 | 1017.6 |
| 20260504193505 | 54 | 115 | 0.0 | 2.6 | 0.00 | 0.00 | 0.00 | 43 | 1017.7 |
| 20260504193006 | 54 | 180 | 0.0 | 1.7 | 0.00 | 0.00 | 0.00 | 42 | 1017.7 |
| 20260504192505 | 55 | 184 | 0.9 | 1.7 | 0.00 | 0.00 | 0.00 | 42 | 1017.7 |
| 20260504192006 | 56 | 179 | 0.0 | 1.7 | 0.00 | 0.00 | 0.00 | 41 | 1017.6 |
| 20260504191526 | 56 | 135 | 0.0 | 1.7 | 0.00 | 0.00 | 0.00 | 40 | 1017.6 |
| 20260504191005 | 56 | 67 | 0.0 | 0.9 | 0.00 | 0.00 | 0.00 | 39 | 1017.5 |
| 20260504190505 | 57 | 58 | 0.9 | 3.5 | 0.00 | 0.00 | 0.00 | 37 | 1017.4 |
| 20260504190005 | 57 | 52 | 2.6 | 4.3 | 0.00 | 0.00 | 0.00 | 36 | 1017.4 |
| 20260504185505 | 57 | 50 | 3.5 | 4.3 | 0.00 | 0.00 | 0.00 | 36 | 1017.3 |
| 20260504185026 | 58 | 56 | 2.6 | 4.3 | 0.00 | 0.00 | 0.00 | 35 | 1017.3 |
| 20260504184526 | 58 | 54 | 2.6 | 5.2 | 0.00 | 0.00 | 0.00 | 35 | 1017.3 |
| 20260504184005 | 59 | 54 | 2.6 | 5.2 | 0.00 | 0.00 | 0.00 | 34 | 1017.2 |
| 20260504183506 | 60 | 45 | 2.6 | 4.3 | 0.00 | 0.00 | 0.00 | 33 | 1017.1 |
| 20260504183005 | 61 | 38 | 0.9 | 4.3 | 0.00 | 0.00 | 0.00 | 32 | 1017.1 |
| 20260504182526 | 61 | 54 | 0.9 | 3.5 | 0.00 | 0.00 | 0.00 | 32 | 1017.1 |
| 20260504182026 | 62 | 52 | 0.9 | 1.7 | 0.00 | 0.00 | 0.00 | 30 | 1017.0 |
| 20260504181526 | 63 | 55 | 0.0 | 1.7 | 0.00 | 0.00 | 0.00 | 27 | 1017.0 |
| 20260504181005 | 63 | 15 | 0.0 | 1.7 | 0.00 | 0.00 | 0.00 | 26 | 1016.9 |
| 20260504180505 | 64 | 334 | 0.0 | 1.7 | 0.00 | 0.00 | 0.00 | 25 | 1016.9 |
| 20260504180005 | 64 | 306 | 0.0 | 1.7 | 0.00 | 0.00 | 0.00 | 24 | 1016.9 |
| 20260504175526 | 64 | 180 | 0.0 | 1.7 | 0.00 | 0.00 | 0.00 | 23 | 1016.8 |
| 20260504175005 | 65 | 180 | 0.9 | 3.5 | 0.00 | 0.00 | 0.00 | 22 | 1016.9 |
| 20260504174505 | 65 | 180 | 2.6 | 3.5 | 0.00 | 0.00 | 0.00 | 22 | 1016.7 |
| 20260504174005 | 66 | 188 | 2.6 | 4.3 | 0.00 | 0.00 | 0.00 | 22 | 1016.7 |
| 20260504173505 | 66 | 201 | 2.6 | 4.3 | 0.00 | 0.00 | 0.00 | 22 | 1016.7 |
| 20260504173005 | 66 | 203 | 1.7 | 4.3 | 0.00 | 0.00 | 0.00 | 21 | 1016.6 |
| 20260504172505 | 66 | 187 | 2.6 | 5.2 | 0.00 | 0.00 | 0.00 | 21 | 1016.6 |
| 20260504172005 | 67 | 202 | 4.3 | 8.7 | 0.00 | 0.00 | 0.00 | 21 | 1016.5 |
| 20260504171505 | 67 | 212 | 4.3 | 8.7 | 0.00 | 0.00 | 0.00 | 21 | 1016.5 |
| 20260504171006 | 67 | 196 | 5.2 | 8.7 | 0.00 | 0.00 | 0.00 | 21 | 1016.5 |
| 20260504170505 | 67 | 194 | 6.1 | 8.7 | 0.00 | 0.00 | 0.00 | 21 | 1016.4 |
| 20260504151026 | 71 | 189 | 8.7 | 13.0 | 0.00 | 0.00 | 0.00 | 15 | 1016.5 |
| 20260504150505 | 71 | 176 | 7.8 | 13.0 | 0.00 | 0.00 | 0.00 | 15 | 1016.6 |
| 20260504141005 | 72 | 206 | 7.8 | 13.9 | 0.00 | 0.00 | 0.00 | 20 | 1016.9 |
| 20260504140504 | 72 | 196 | 7.8 | 13.0 | 0.00 | 0.00 | 0.00 | 20 | 1016.9 |
| 20260504130505 | 72 | 161 | 6.1 | 10.4 | 0.00 | 0.00 | 0.00 | 15 | 1017.2 |
| 20260504110504 | 69 | 354 | 2.6 | 5.2 | 0.00 | 0.00 | 0.00 | 23 | 1018.5 |
| 20260504100503 | 66 | 269 | 1.7 | 5.2 | 0.00 | 0.00 | 0.00 | 30 | 1019.3 |
| 20260504082003 | 58 | 349 | 1.7 | 4.3 | 0.00 | 0.00 | 0.00 | 44 | 1020.4 |
| 20260504081503 | 58 | 355 | 0.9 | 1.7 | 0.00 | 0.00 | 0.00 | 47 | 1020.4 |
| 20260504081024 | 57 | 202 | 0.9 | 3.5 | 0.00 | 0.00 | 0.00 | 50 | 1020.5 |
| 20260504080503 | 56 | 193 | 1.7 | 3.5 | 0.00 | 0.00 | 0.00 | 51 | 1020.5 |
| 20260504050507 | 36 | 52 | 0.9 | 1.7 | 0.00 | 0.00 | 0.00 | 76 | 1021.2 |
| 20260504050007 | 36 | 42 | 0.9 | 2.6 | 0.00 | 0.00 | 0.00 | 76 | 1021.2 |
| 20260504045507 | 36 | 43 | 0.9 | 3.5 | 0.00 | 0.00 | 0.00 | 77 | 1021.2 |
| 20260504045007 | 36 | 49 | 1.7 | 3.5 | 0.00 | 0.00 | 0.00 | 77 | 1021.1 |
| 20260504044507 | 35 | 97 | 0.9 | 2.6 | 0.00 | 0.00 | 0.00 | 78 | 1021.2 |
| 20260504044007 | 35 | 138 | 0.9 | 1.7 | 0.00 | 0.00 | 0.00 | 78 | 1021.2 |
| 20260504043507 | 35 | 130 | 0.0 | 1.7 | 0.00 | 0.00 | 0.00 | 78 | 1021.3 |
| 20260504043028 | 34 | 360 | 0.0 | 0.9 | 0.00 | 0.00 | 0.00 | 78 | 1021.1 |
| 20260504042528 | 34 | 5 | 0.0 | 1.7 | 0.00 | 0.00 | 0.00 | 78 | 1021.2 |
| 20260504042007 | 34 | 25 | 0.9 | 1.7 | 0.00 | 0.00 | 0.00 | 77 | 1021.2 |
| 20260504041507 | 34 | 33 | 0.9 | 1.7 | 0.00 | 0.00 | 0.00 | 77 | 1021.2 |
| 20260504041007 | 34 | 28 | 0.9 | 2.6 | 0.00 | 0.00 | 0.00 | 77 | 1021.1 |
| 20260504040529 | 34 | 27 | 1.7 | 2.6 | 0.00 | 0.00 | 0.00 | 77 | 1021.1 |
| 20260504040007 | 33 | 37 | 0.9 | 2.6 | 0.00 | 0.00 | 0.00 | 77 | 1021.0 |
| 20260504035528 | 33 | 52 | 0.0 | 1.7 | 0.00 | 0.00 | 0.00 | 78 | 1021.1 |
| 20260504035007 | 33 | 45 | 0.0 | 1.7 | 0.00 | 0.00 | 0.00 | 77 | 1021.0 |
| 20260504034508 | 33 | 45 | 0.0 | 0.9 | 0.00 | 0.00 | 0.00 | 77 | 1020.9 |
| 20260504034007 | 33 | 45 | 0.0 | 0.9 | 0.00 | 0.00 | 0.00 | 77 | 1020.9 |
| 20260504033507 | 33 | 0 | 0.0 | 0.0 | 0.00 | 0.00 | 0.00 | 76 | 1020.8 |
| 20260504033007 | 33 | 0 | 0.0 | 0.0 | 0.00 | 0.00 | 0.00 | 76 | 1020.8 |
| 20260504032528 | 33 | 0 | 0.0 | 0.0 | 0.00 | 0.00 | 0.00 | 77 | 1020.9 |
| 20260504032007 | 34 | 0 | 0.0 | 0.0 | 0.00 | 0.00 | 0.00 | 77 | 1020.8 |
| 20260504031528 | 34 | 45 | 0.0 | 0.9 | 0.00 | 0.00 | 0.00 | 77 | 1020.8 |
| 20260504031006 | 34 | 45 | 0.0 | 1.7 | 0.00 | 0.00 | 0.00 | 77 | 1020.9 |
| 20260504030507 | 34 | 45 | 0.0 | 1.7 | 0.00 | 0.00 | 0.00 | 77 | 1021.0 |
| 20260504030008 | 34 | 45 | 0.0 | 1.7 | 0.00 | 0.00 | 0.00 | 77 | 1020.9 |
| 20260504025507 | 34 | 25 | 0.9 | 2.6 | 0.00 | 0.00 | 0.00 | 76 | 1020.8 |
| 20260504025007 | 34 | 4 | 0.0 | 2.6 | 0.00 | 0.00 | 0.00 | 76 | 1020.8 |
| 20260504024507 | 34 | 24 | 0.0 | 1.7 | 0.00 | 0.00 | 0.00 | 76 | 1020.8 |
| 20260504024006 | 34 | 42 | 0.0 | 1.7 | 0.00 | 0.00 | 0.00 | 76 | 1020.8 |
| 20260504023506 | 35 | 55 | 0.0 | 1.7 | 0.00 | 0.00 | 0.00 | 76 | 1020.8 |
| 20260504023007 | 35 | 62 | 0.0 | 1.7 | 0.00 | 0.00 | 0.00 | 75 | 1020.8 |
| 20260504022506 | 35 | 67 | 0.9 | 1.7 | 0.00 | 0.00 | 0.00 | 75 | 1020.8 |
| 20260504022006 | 35 | 62 | 0.9 | 3.5 | 0.00 | 0.00 | 0.00 | 75 | 1020.8 |
| 20260504021506 | 35 | 38 | 0.9 | 3.5 | 0.00 | 0.00 | 0.00 | 75 | 1020.9 |
| 20260504021006 | 35 | 359 | 0.0 | 1.7 | 0.00 | 0.00 | 0.00 | 75 | 1020.8 |
| 20260504020506 | 35 | 358 | 0.0 | 1.7 | 0.00 | 0.00 | 0.00 | 75 | 1020.8 |
| 20260504020007 | 35 | 349 | 0.0 | 1.7 | 0.00 | 0.00 | 0.00 | 75 | 1020.9 |
| 20260504015507 | 35 | 348 | 0.0 | 0.9 | 0.00 | 0.00 | 0.00 | 74 | 1020.8 |
| 20260504015006 | 35 | 10 | 0.0 | 1.7 | 0.00 | 0.00 | 0.00 | 74 | 1020.8 |
| 20260504014506 | 35 | 16 | 0.0 | 1.7 | 0.00 | 0.00 | 0.00 | 74 | 1020.8 |
| 20260504014007 | 36 | 24 | 0.0 | 1.7 | 0.00 | 0.00 | 0.00 | 74 | 1020.7 |
| 20260504013507 | 36 | 38 | 0.0 | 1.7 | 0.00 | 0.00 | 0.00 | 74 | 1020.7 |
| 20260504013006 | 36 | 42 | 0.0 | 1.7 | 0.00 | 0.00 | 0.00 | 74 | 1020.7 |
| 20260504012527 | 36 | 53 | 0.0 | 1.7 | 0.00 | 0.00 | 0.00 | 74 | 1020.7 |
| 20260504012006 | 36 | 90 | 0.0 | 0.9 | 0.00 | 0.00 | 0.00 | 74 | 1020.8 |
| 20260504011507 | 36 | 90 | 0.0 | 0.9 | 0.00 | 0.00 | 0.00 | 73 | 1020.8 |
| 20260504011028 | 36 | 90 | 0.0 | 1.7 | 0.00 | 0.00 | 0.00 | 73 | 1020.7 |
| 20260504010506 | 37 | 90 | 0.0 | 1.7 | 0.00 | 0.00 | 0.00 | 73 | 1020.8 |
| 20260504010007 | 37 | 90 | 0.0 | 0.9 | 0.00 | 0.00 | 0.00 | 73 | 1020.6 |
| 20260504005527 | 37 | 90 | 0.0 | 0.9 | 0.00 | 0.00 | 0.00 | 73 | 1020.6 |
| 20260504005006 | 37 | 0 | 0.0 | 0.0 | 0.00 | 0.00 | 0.00 | 72 | 1020.7 |
| 20260504004506 | 37 | 63 | 0.0 | 1.7 | 0.00 | 0.00 | 0.00 | 72 | 1020.7 |
| 20260504004028 | 37 | 69 | 0.0 | 1.7 | 0.00 | 0.00 | 0.00 | 72 | 1020.8 |
| 20260504003507 | 38 | 55 | 0.0 | 1.7 | 0.00 | 0.00 | 0.00 | 72 | 1020.7 |
| 20260504003006 | 38 | 13 | 0.0 | 1.7 | 0.00 | 0.00 | 0.00 | 72 | 1020.6 |
| 20260504002506 | 38 | 10 | 0.0 | 1.7 | 0.00 | 0.00 | 0.00 | 72 | 1020.8 |
| 20260504002006 | 38 | 26 | 0.0 | 1.7 | 0.00 | 0.00 | 0.00 | 72 | 1020.8 |
| 20260504001527 | 38 | 45 | 0.0 | 0.9 | 0.00 | 0.00 | 0.00 | 72 | 1020.8 |
| 20260504001006 | 38 | 45 | 0.0 | 0.9 | 0.00 | 0.00 | 0.00 | 72 | 1020.8 |
| 20260504000506 | 38 | 45 | 0.0 | 0.9 | 0.00 | 0.00 | 0.00 | 72 | 1020.8 |
| 20260504000006 | 38 | 45 | 0.0 | 0.9 | 0.00 | 0.00 | 0.00 | 72 | 1020.8 |
| 20260503235506 | 39 | 45 | 0.0 | 1.7 | 0.00 | 0.00 | 0.00 | 71 | 1020.8 |
| 20260503235027 | 39 | 45 | 0.0 | 1.7 | 0.00 | 0.00 | 0.00 | 71 | 1020.9 |
| 20260503234506 | 39 | 60 | 0.0 | 2.6 | 0.00 | 0.00 | 0.00 | 71 | 1021.0 |
| 20260503234006 | 39 | 71 | 0.0 | 2.6 | 0.00 | 0.00 | 0.00 | 72 | 1021.0 |
| 20260503233527 | 39 | 83 | 0.0 | 1.7 | 0.00 | 0.00 | 0.00 | 71 | 1020.9 |
| 20260503233027 | 39 | 80 | 0.0 | 1.7 | 0.00 | 0.00 | 0.00 | 71 | 1021.0 |
| 20260503232506 | 40 | 45 | 0.0 | 0.9 | 0.00 | 0.00 | 0.00 | 71 | 1021.0 |
| 20260503232006 | 40 | 63 | 0.0 | 1.7 | 0.00 | 0.00 | 0.00 | 70 | 1021.0 |
| 20260503231506 | 40 | 63 | 0.0 | 1.7 | 0.00 | 0.00 | 0.00 | 70 | 1020.9 |
| 20260503231006 | 40 | 90 | 0.0 | 0.9 | 0.00 | 0.00 | 0.00 | 70 | 1020.9 |
| 20260503230506 | 41 | 90 | 0.0 | 0.9 | 0.00 | 0.00 | 0.00 | 70 | 1020.9 |
| 20260503230006 | 41 | 90 | 0.0 | 1.7 | 0.00 | 0.00 | 0.00 | 70 | 1020.9 |
| 20260503225506 | 41 | 90 | 0.9 | 1.7 | 0.00 | 0.00 | 0.00 | 70 | 1020.9 |
| 20260503225006 | 41 | 84 | 0.0 | 1.7 | 0.00 | 0.00 | 0.00 | 69 | 1020.9 |
| 20260503224506 | 42 | 60 | 0.0 | 1.7 | 0.00 | 0.00 | 0.00 | 68 | 1021.0 |
| 20260503224006 | 42 | 360 | 0.0 | 0.9 | 0.00 | 0.00 | 0.00 | 68 | 1020.8 |
| 20260503223506 | 42 | 5 | 0.0 | 1.7 | 0.00 | 0.00 | 0.00 | 68 | 1020.8 |
| 20260503223006 | 42 | 4 | 0.0 | 1.7 | 0.00 | 0.00 | 0.00 | 69 | 1021.0 |
| 20260503222506 | 42 | 360 | 0.0 | 1.7 | 0.00 | 0.00 | 0.00 | 69 | 1020.9 |
| 20260503222006 | 42 | 178 | 0.9 | 1.7 | 0.00 | 0.00 | 0.00 | 69 | 1020.9 |
| 20260503221506 | 42 | 160 | 0.9 | 1.7 | 0.00 | 0.00 | 0.00 | 68 | 1020.9 |
| 20260503221006 | 43 | 72 | 0.9 | 2.6 | 0.00 | 0.00 | 0.00 | 67 | 1020.9 |
| 20260503220506 | 43 | 36 | 0.9 | 2.6 | 0.00 | 0.00 | 0.00 | 66 | 1020.8 |
| 20260503220006 | 43 | 45 | 0.9 | 2.6 | 0.00 | 0.00 | 0.00 | 67 | 1020.9 |
| 20260503215505 | 43 | 167 | 0.0 | 1.7 | 0.00 | 0.00 | 0.00 | 67 | 1021.0 |
| 20260503215027 | 43 | 180 | 0.0 | 1.7 | 0.00 | 0.00 | 0.00 | 67 | 1020.9 |
| 20260503214506 | 44 | 180 | 0.0 | 1.7 | 0.00 | 0.00 | 0.00 | 62 | 1020.7 |
| 20260503214027 | 44 | 180 | 0.0 | 1.7 | 0.00 | 0.00 | 0.00 | 62 | 1020.8 |
| 20260503213526 | 44 | 180 | 0.0 | 1.7 | 0.00 | 0.00 | 0.00 | 62 | 1020.8 |
| 20260503213006 | 44 | 180 | 0.0 | 1.7 | 0.00 | 0.00 | 0.00 | 62 | 1020.8 |
| 20260503212506 | 45 | 180 | 0.0 | 1.7 | 0.00 | 0.00 | 0.00 | 62 | 1020.6 |
| 20260503212006 | 45 | 180 | 0.0 | 1.7 | 0.00 | 0.00 | 0.00 | 61 | 1020.6 |
| 20260503211506 | 45 | 225 | 0.0 | 0.9 | 0.00 | 0.00 | 0.00 | 61 | 1020.7 |
| 20260503211006 | 45 | 225 | 0.0 | 1.7 | 0.00 | 0.00 | 0.00 | 61 | 1020.7 |
| 20260503210505 | 46 | 225 | 0.0 | 1.7 | 0.00 | 0.00 | 0.00 | 61 | 1020.6 |
| 20260503210007 | 46 | 225 | 0.9 | 1.7 | 0.00 | 0.00 | 0.00 | 61 | 1020.6 |
| 20260503205506 | 46 | 225 | 0.0 | 1.7 | 0.00 | 0.00 | 0.00 | 60 | 1020.6 |
| 20260503205005 | 46 | 197 | 0.0 | 1.7 | 0.00 | 0.00 | 0.00 | 60 | 1020.5 |